Orbital Elements at Epoch 2459000.5 (2020-May-31.0) TDB
Reference: JPL 19 (heliocentric ecliptic J2000)
Element | Value | Uncertainty (1-sigma) | Units |
e | .1469682284804457 | 4.4593e-08 | |
a | 2.568552223016668 | 1.3948e-08 | au |
q | 2.191056653040397 | 1.1766e-07 | au |
i | 5.53068103377005 | 3.0947e-06 | deg |
node | 105.8589782513168 | 5.7957e-05 | deg |
peri | 228.5008557619032 | 6.054e-05 | deg |
M | 352.626391951564 | 1.6683e-05 | deg |
tp | 2459031.297011469042 (2020-Jun-30.79701147) | 6.9579e-05 | TDB |
period | 1503.595533696272 4.12 | 1.2247e-05 3.353e-08 | d yr |
n | .2394260902830803 | 1.9502e-09 | deg/d |
Q | 2.946047792992938 | 1.5998e-08 | au |
|
| | Orbit Determination Parameters
Additional Information
|